Simultaneous Nadir Overpasses (SNOs) Predictions

Prediction of SNOs between NOAA-15 and METOP-C Satellite Orbit:

Table of predicted SNOs for the next 14.0 days since TLE Epoch: 9/25/2020
Index Date (NOAA-15) Time (NOAA-15) Lat,Lon (NOAA-15) SZA (NOAA-15 ) Date (METOP-C) Time (METOP-C) Lat,Lon (METOP-C) SZA (METOP-C ) Distance(km) Time Diff (sec)
1 10/03/2020 12:11:34 80.97, 32.96 87.15 10/03/2020 12:10:21 80.96, 33.03 87.12 1.43 73
2 10/03/2020 13:02:08 -80.97,-159.76 92.85 10/03/2020 13:01:03 -80.96,-159.72 92.88 1.65 65
3 10/03/2020 13:52:36 80.96, 7.85 87.19 10/03/2020 13:51:42 80.97, 7.88 87.18 1.23 54
4 10/03/2020 14:43:10 -80.96, 175.13 92.81 10/03/2020 14:42:24 -80.97, 175.14 92.83 0.32 46
5 10/03/2020 15:33:39 80.97, -17.63 87.20 10/03/2020 15:33:04 80.96, -17.63 87.18 0.90 35
6 10/03/2020 16:24:13 -80.97, 149.65 92.80 10/03/2020 16:23:46 -80.96, 149.63 92.82 1.73 27
7 10/03/2020 17:14:41 80.96, -42.74 87.24 10/03/2020 17:14:25 80.97, -42.77 87.23 1.07 16
8 10/03/2020 18:05:15 -80.97, 124.54 92.76 10/03/2020 18:05:07 -80.97, 124.49 92.77 0.92 8
9 10/03/2020 18:55:44 80.97, -68.21 87.25 10/03/2020 18:55:47 80.96, -68.28 87.24 1.62 3
10 10/03/2020 19:46:17 -80.96, 99.43 92.72 10/03/2020 19:46:28 -80.98, 99.34 92.71 2.35 11
11 10/03/2020 20:36:45 80.96, -93.32 87.29 10/03/2020 20:37:07 80.97, -93.42 87.29 1.95 22
12 10/03/2020 21:27:19 -80.97, 73.95 92.71 10/03/2020 21:27:49 -80.97, 73.84 92.71 1.98 30
13 10/03/2020 22:17:48 80.97,-118.79 87.30 10/03/2020 22:18:29 80.96,-118.93 87.30 2.73 41
14 10/03/2020 23:08:21 -80.96, 48.84 92.67 10/03/2020 23:09:10 -80.98, 48.69 92.65 3.01 49
15 10/03/2020 23:58:50 80.97,-143.90 87.34 10/03/2020 23:59:50 80.97,-144.08 87.35 3.08 60
16 10/04/2020 00:49:24 -80.97, 23.36 92.66 10/04/2020 00:50:32 -80.97, 23.18 92.65 3.06 68
